Weather History for Oakland, MD

Change the Weather History Date:

Monday, May 6, 2013

  Actual Average (KMGW) Record (KMGW)
Temperature  
Mean Temperature 46 °F 59 °F  
Max Temperature 50 °F 70 °F 90 °F (1949)
Min Temperature 41 °F 47 °F 30 °F (1968)
Degree Days  
Heating Degree Days 20 7  
Month to date heating degree days 46  
Since 1 July heating degree days 5029  
Cooling Degree Days 0 1  
Month to date cooling degree days 6  
Year to date cooling degree days 22  
Moisture  
Dew Point 45 °F    
Average Humidity 98    
Maximum Humidity 100    
Minimum Humidity 76    
Precipitation  
Precipitation 0.00 in 0.15 in 1.25 in (1971)
Month to date precipitation 0.82  
Year to date precipitation 13.40  
Sea Level Pressure  
Sea Level Pressure 30.07 in    
Wind  
Wind Speed 19 mph (ESE)    
Max Wind Speed 24 mph    
Max Gust Speed 32 mph    
Visibility 4 miles    
Events Fog    
T = Trace of Precipitation, MM = Missing Value Source: NWS Daily Summary

Daily Weather History Graph

Daily Weather History Graph

Search for Another Location

Airport:

Trip Planner

Search our weather history database for the weather conditions in past years. The results will help you decide how hot, cold, wet, or windy it might be!

Date:

Astronomy

May. 06, 2013 Rise Set
Actual Time 6:12 AM EDT 8:16 PM EDT
Civil Twilight 5:42 AM EDT 8:46 PM EDT
Nautical Twilight 5:06 AM EDT 9:22 PM EDT
Astronomical Twilight 4:27 AM EDT 10:01 PM EDT
Moon 4:12 AM EDT (5/6) 5:15 PM EDT (5/6)
Length of Visible Light 15h 03m
Length of Day
14h 04m
Waning Crescent, 11% of the Moon is Illuminated
May 6
Waning Crescent
May 9
New
May 18
First Quarter
May 25
Full
May 31
Last Quarter

Hourly Weather History & Observations

Time (EDT) Temp. Windchill Dew Point Humidity Pressure Visibility Wind Dir Wind Speed Gust Speed Precip Events Conditions
12:10 AM 42.8 °F 34.3 °F 35.6 °F 76% 30.10 in 10.0 mi ESE 19.6 mph 26.5 mph N/A   Clear
12:30 AM 42.8 °F 34.5 °F 35.6 °F 76% 30.10 in 10.0 mi ESE 18.4 mph 28.8 mph N/A   Clear
12:50 AM 42.8 °F 34.3 °F 37.4 °F 81% 30.10 in 10.0 mi ESE 19.6 mph 28.8 mph N/A   Clear
1:10 AM 42.8 °F 33.5 °F 37.4 °F 81% 30.09 in 10.0 mi ESE 23.0 mph 32.2 mph N/A   Clear
1:30 AM 41.0 °F 31.4 °F 37.4 °F 87% 30.09 in 10.0 mi ESE 21.9 mph 28.8 mph N/A   Clear
1:50 AM 41.0 °F 31.9 °F 37.4 °F 87% 30.09 in 10.0 mi ESE 19.6 mph 26.5 mph N/A   Clear
2:30 AM 41.0 °F 31.6 °F 39.2 °F 93% 30.07 in 10.0 mi ESE 20.7 mph 26.5 mph N/A   Clear
2:50 AM 41.0 °F 31.6 °F 41.0 °F 100% 30.06 in 10.0 mi ESE 20.7 mph 29.9 mph N/A   Clear
3:10 AM 41.0 °F 32.5 °F 41.0 °F 100% 30.06 in 10.0 mi ESE 17.3 mph - N/A   Clear
3:30 AM 41.0 °F 31.9 °F 41.0 °F 100% 30.06 in 10.0 mi ESE 19.6 mph 26.5 mph N/A   Clear
3:50 AM 41.0 °F 31.6 °F 41.0 °F 100% 30.06 in 10.0 mi ESE 20.7 mph 28.8 mph N/A   Scattered Clouds
4:10 AM 41.0 °F 31.6 °F 41.0 °F 100% 30.06 in 10.0 mi ESE 20.7 mph 25.3 mph N/A   Scattered Clouds
4:30 AM 41.0 °F 30.9 °F 41.0 °F 100% 30.05 in 10.0 mi ESE 24.2 mph 31.1 mph N/A   Scattered Clouds
4:50 AM 41.0 °F 30.9 °F 41.0 °F 100% 30.05 in 10.0 mi ESE 24.2 mph 31.1 mph N/A   Scattered Clouds
5:10 AM 41.0 °F 31.1 °F 41.0 °F 100% 30.06 in 10.0 mi ESE 23.0 mph 29.9 mph N/A   Overcast
5:35 AM 41.0 °F 31.4 °F 41.0 °F 100% 30.06 in 7.0 mi ESE 21.9 mph 28.8 mph N/A   Overcast
5:55 AM 41.0 °F 31.1 °F 41.0 °F 100% 30.06 in 7.0 mi ESE 23.0 mph 27.6 mph N/A   Overcast
6:15 AM 41.0 °F 31.4 °F 41.0 °F 100% 30.07 in 1.5 mi ESE 21.9 mph 27.6 mph N/A   Overcast
6:35 AM 41.0 °F 32.8 °F 41.0 °F 100% 30.07 in 1.0 mi ESE 16.1 mph 25.3 mph N/A   Overcast
6:55 AM 41.0 °F 31.6 °F 41.0 °F 100% 30.08 in 2.5 mi ESE 20.7 mph 26.5 mph N/A   Overcast
7:15 AM 41.0 °F 31.9 °F 41.0 °F 100% 30.07 in 3.0 mi ESE 19.6 mph 26.5 mph N/A   Overcast
7:35 AM 41.0 °F 32.8 °F 41.0 °F 100% 30.08 in 0.8 mi ESE 16.1 mph - N/A   Overcast
7:55 AM 41.0 °F 33.1 °F 41.0 °F 100% 30.08 in 0.2 mi ESE 15.0 mph - N/A Fog Fog
8:15 AM 41.0 °F 32.8 °F 41.0 °F 100% 30.08 in 0.2 mi ESE 16.1 mph 21.9 mph N/A Fog Fog
8:35 AM 41.0 °F 32.5 °F 41.0 °F 100% 30.08 in 0.2 mi ESE 17.3 mph 20.7 mph N/A Fog Fog
8:55 AM 42.8 °F 34.5 °F 42.8 °F 100% 30.08 in 0.2 mi ESE 18.4 mph 25.3 mph N/A Fog Fog
9:15 AM 42.8 °F 34.0 °F 42.8 °F 100% 30.08 in 0.2 mi ESE 20.7 mph 27.6 mph N/A Fog Fog
9:35 AM 42.8 °F 34.0 °F 42.8 °F 100% 30.08 in 0.2 mi ESE 20.7 mph 27.6 mph N/A Fog Fog
9:55 AM 42.8 °F 34.3 °F 42.8 °F 100% 30.08 in 0.2 mi ESE 19.6 mph 27.6 mph N/A Fog Fog
10:15 AM 44.6 °F 35.7 °F 44.6 °F 100% 30.08 in 0.2 mi ESE 24.2 mph 29.9 mph N/A Fog Fog
10:35 AM 42.8 °F 34.8 °F 42.8 °F 100% 30.09 in 0.2 mi ESE 17.3 mph 27.6 mph N/A Fog Fog
10:55 AM 44.6 °F 36.1 °F 44.6 °F 100% 30.09 in 0.2 mi ESE 21.9 mph 27.6 mph N/A Fog Fog
11:15 AM 44.6 °F 36.6 °F 44.6 °F 100% 30.09 in 0.2 mi ESE 19.6 mph 27.6 mph N/A Fog Fog
11:35 AM 44.6 °F 37.2 °F 44.6 °F 100% 30.10 in 0.2 mi ESE 17.3 mph 26.5 mph N/A Fog Fog
11:55 AM 44.6 °F 37.2 °F 44.6 °F 100% 30.10 in 0.2 mi ESE 17.3 mph 28.8 mph N/A Fog Fog
12:15 PM 44.6 °F 37.8 °F 44.6 °F 100% 30.10 in 0.5 mi ESE 15.0 mph 21.9 mph N/A Fog Fog
12:35 PM 46.4 °F 39.5 °F 46.4 °F 100% 30.09 in 0.8 mi SE 17.3 mph 23.0 mph N/A   Overcast
12:55 PM 46.4 °F 39.5 °F 46.4 °F 100% 30.08 in 0.2 mi ESE 17.3 mph 23.0 mph N/A Fog Fog
1:15 PM 48.2 °F - 48.2 °F 100% 30.08 in 2.5 mi ESE 18.4 mph 25.3 mph N/A   Overcast
1:35 PM 50.0 °F - 50.0 °F 100% 30.08 in 4.0 mi ESE 15.0 mph 25.3 mph N/A   Overcast
1:55 PM 48.2 °F - 48.2 °F 100% 30.08 in 4.0 mi ESE 16.1 mph 19.6 mph N/A   Overcast
2:15 PM 48.2 °F - 48.2 °F 100% 30.08 in 2.0 mi ESE 13.8 mph - N/A   Overcast
2:35 PM 50.0 °F - 50.0 °F 100% 30.08 in 3.0 mi ESE 10.4 mph 18.4 mph N/A   Overcast
2:55 PM 50.0 °F - 50.0 °F 100% 30.08 in 2.0 mi ESE 11.5 mph - N/A   Overcast
3:15 PM 50.0 °F - 50.0 °F 100% 30.07 in 3.0 mi East 13.8 mph 20.7 mph N/A   Overcast
3:35 PM 50.0 °F - 50.0 °F 100% 30.06 in 1.5 mi ESE 11.5 mph - N/A   Overcast
3:55 PM 50.0 °F - 50.0 °F 100% 30.06 in 1.8 mi East 10.4 mph 17.3 mph N/A   Overcast
4:15 PM - - - %  in - Calm Calm - -  
4:35 PM 50.0 °F - 50.0 °F 100% 30.05 in 3.0 mi ESE 13.8 mph 20.7 mph N/A   Mist
4:55 PM 50.0 °F - 50.0 °F 100% 30.04 in 3.0 mi ESE 16.1 mph 19.6 mph N/A   Overcast
5:15 PM 50.0 °F - 50.0 °F 100% 30.04 in 1.0 mi ESE 15.0 mph 23.0 mph N/A   Overcast
5:35 PM 50.0 °F - 50.0 °F 100% 30.05 in 0.2 mi East 12.7 mph 18.4 mph N/A Fog Fog
5:55 PM 50.0 °F - 50.0 °F 100% 30.04 in 0.5 mi East 11.5 mph 19.6 mph N/A Fog Fog
6:15 PM 50.0 °F - 50.0 °F 100% 30.04 in 0.2 mi East 9.2 mph - N/A Fog Fog
6:35 PM 50.0 °F - 50.0 °F 100% 30.04 in 0.2 mi East 10.4 mph 19.6 mph N/A Fog Fog
6:55 PM 50.0 °F - 50.0 °F 100% 30.04 in 0.2 mi East 13.8 mph 19.6 mph N/A Fog Fog
7:15 PM 50.0 °F - 50.0 °F 100% 30.04 in 1.8 mi East 15.0 mph - N/A   Overcast
7:35 PM 50.0 °F - 50.0 °F 100% 30.04 in 0.8 mi East 17.3 mph 27.6 mph N/A   Overcast
7:55 PM 50.0 °F - 50.0 °F 100% 30.04 in 1.0 mi East 15.0 mph 21.9 mph N/A   Overcast
8:15 PM 50.0 °F - 50.0 °F 100% 30.04 in 0.8 mi East 11.5 mph 19.6 mph N/A   Overcast
8:55 PM 50.0 °F - 50.0 °F 100% 30.05 in 2.0 mi East 15.0 mph 20.7 mph N/A   Overcast
9:15 PM 50.0 °F - 50.0 °F 100% 30.06 in 3.0 mi ESE 19.6 mph 26.5 mph N/A   Overcast
9:35 PM 50.0 °F - 50.0 °F 100% 30.06 in 2.5 mi ESE 18.4 mph 28.8 mph N/A   Overcast
9:55 PM 50.0 °F - 50.0 °F 100% 30.05 in 5.0 mi ESE 17.3 mph 26.5 mph N/A   Overcast
10:15 PM 50.0 °F - 50.0 °F 100% 30.05 in 10.0 mi ESE 18.4 mph 28.8 mph N/A   Overcast
10:35 PM 50.0 °F - 50.0 °F 100% 30.05 in 10.0 mi ESE 17.3 mph 28.8 mph N/A   Overcast
10:55 PM 50.0 °F - 50.0 °F 100% 30.05 in 10.0 mi ESE 16.1 mph 29.9 mph N/A   Overcast
11:15 PM 50.0 °F - 50.0 °F 100% 30.04 in 10.0 mi East 17.3 mph 29.9 mph N/A   Overcast
11:35 PM 50.0 °F - 50.0 °F 100% 30.03 in 10.0 mi East 18.4 mph 25.3 mph N/A   Overcast
11:55 PM 50.0 °F - 50.0 °F 100% 30.03 in 10.0 mi East 16.1 mph 27.6 mph N/A   Overcast